Regional Weather Roundup
Issued by NWS Bismarck, ND

Home | Current Version | Previous Version | Text Only | Print | Product List | Glossary On
Versions: 1 2 3 4 5 6 7 8 9 10 11 12 13 14 15 16 17 18 19 20 21 22 23 24 25 26 27 28 29 30 31 32 33 34 35 36 37 38 39 40 41 42 43 44 45 46 47 48 49 50
000
ASUS43 KBIS 241602
RWRBIS

NWR BROADCAST TEXT
NATIONAL WEATHER SERVICE BISMARCK ND
1000 AM CST TUE JAN 24 2017

NOTE: "FAIR" INDICATES FEW OR NO CLOUDS BELOW 12,000 FEET WITH NO
SIGNIFICANT WEATHER AND/OR OBSTRUCTIONS TO VISIBILITY.


CITY           SKY/WX    TMP DP  RH WIND       PRES   REMARKS
WILLISTON      CLOUDY    19  14  81 W5        29.91R WCI  12
MINOT          CLOUDY    23  16  74 W10       29.85S WCI  12
MINOT AFB      NOT AVBL
BISMARCK       CLOUDY    25  19  78 N7        29.90R WCI  17
DICKINSON      CLOUDY    20  16  84 N12       29.83R WCI   8
GARRISON         N/A     21  17  84 NW10      29.86R WCI  10
HETTINGER ARPT CLOUDY    20  18  92 N9        29.83S WCI   9
JAMESTOWN      CLOUDY    23  19  85 NW8       29.86S WCI  14
CARRINGTON     CLOUDY    23  19  86 W7        29.88R WCI  15
HAZEN          CLOUDY   N/A N/A N/A NW9       29.90R
MANDAN         CLOUDY    23  19  86 N7        29.88S WCI  15
STANLEY        CLOUDY    18  18 100 NW8       29.87R WCI   7
WATFORD CITY   CLOUDY    19  16  86 NW8       29.89S WCI   9
$$

CITY           SKY/WX    TMP DP  RH WIND       PRES   REMARKS
GRAND FORKS    CLOUDY    27  20  75 W8        29.88R WCI  19
GRAND FORKS AF CLOUDY    26  20  79 W6        29.87S WCI  19
DEVILS LAKE    FAIR      21  18  88 W9        29.84F WCI  11
FARGO          CLOUDY    28  22  78 N8        29.90S WCI  20
GRAFTON        FAIR      25  23  93 W6        29.88R WCI  18
GWINNER        PTSUNNY   30  28  93 NE8       29.88S
$$

CITY           SKY/WX    TMP DP  RH WIND       PRES   REMARKS
ABERDEEN       LGT SNOW  28  24  85 NE10      29.86R FOG     WCI  19
MOBRIDGE       LGT SNOW  25  18  74 N17G25    29.82S WCI  12
BUFFALO          N/A     24  20  84 NE8       29.76R WCI  15
RAPID CITY     LGT SNOW  20  17  88 NW21      29.77S VSB 1   WCI   4
GLASGOW        CLOUDY    18  16  92 W9        29.90R WCI   7
SIDNEY         FLURRIES  20  16  84 NW6       29.92R WCI  12
WOLF POINT     CLOUDY    21  15  78 SW5       29.92S WCI  15
GLENDIVE       FLURRIES  19  15  84 NW9       29.90S WCI   8
MILES CITY     CLOUDY    21  17  84 NW7       29.90R WCI  12
BAKER          CLOUDY    19  16  88 NW10      29.85S WCI   7
$$

CITY           SKY/WX    TMP DP  RH WIND       PRES   REMARKS
BILLINGS       FLURRIES  20  17  88 NE8       29.86S WCI  10
GREAT FALLS    FAIR      12   8  84 SW13      29.88R WCI  -3
$$




USA.gov is the U.S. government's official web portal to all federal, state and local government web resources and services.